Te Rauamoa, New Zealand

3:04 PM NZDT on January 22, 2017 (GMT +1300)
Auckland International Airport

Weather History for NZAA - January, 2014

Change the Weather History Date:

Wednesday, January 8, 2014

  Actual Average Record
Temperature  
Mean Temperature 68 °F -  
Max Temperature 73 °F 71 °F 78 °F (2009)
Min Temperature 62 °F 59 °F 53 °F (2002)
Cooling Degree Days 2    
Growing Degree Days 18 (Base 50)    
Moisture  
Dew Point 57 °F    
Average Humidity 69    
Maximum Humidity 88    
Minimum Humidity 50    
Precipitation  
Precipitation 0.00 in 0.10 in - ()
Sea Level Pressure  
Sea Level Pressure 29.73 in    
Wind  
Wind Speed 12 mph ()    
Max Wind Speed 23 mph    
Max Gust Speed -    
Visibility 6.2 miles    
Events Rain    
Averages and records for this station are not official NWS values.
T = Trace of Precipitation, MM = Missing Value Source: Averaged Metar Reports

Daily Weather History Graph

Daily Weather History Graph

Search for Another Location

Airport or City:

Trip Planner

Search our weather history database for the weather conditions in past years. The results will help you decide how hot, cold, wet, or windy it might be!

Date:

Astronomy

Jan. 08, 2014 Rise Set
Actual Time 6:10 AM NZDT 8:43 PM NZDT
Civil Twilight 5:39 AM NZDT 9:14 PM NZDT
Nautical Twilight 5:02 AM NZDT 9:51 PM NZDT
Astronomical Twilight 4:20 AM NZDT 10:33 PM NZDT
Moon 1:31 PM NZDT (1/8) 12:24 AM NZDT (1/8)
Length of Visible Light 15h 34m
Length of Day
14h 33m
Waxing Crescent, 48% of the Moon is Illuminated
Jan 8
Waxing Crescent
Jan 8
First Quarter
Jan 16
Full
Jan 24
Last Quarter
Jan 31
New

Hourly Weather History & Observations

Time (NZDT) Temp. Dew Point Humidity Pressure Visibility Wind Dir Wind Speed Gust Speed Precip Events Conditions
12:00 AM 66.2 °F 60.8 °F 83% 29.74 in 6.2 mi WSW 11.5 mph - N/A   Mostly Cloudy
12:30 AM 66.2 °F 60.8 °F 83% 29.74 in 6.2 mi WSW 9.2 mph - N/A   Overcast
1:00 AM 66.2 °F 60.8 °F 83% 29.74 in 6.2 mi WSW 9.2 mph - N/A   Overcast
1:30 AM 66.2 °F 59.0 °F 78% 29.74 in 6.2 mi WSW 8.1 mph - N/A   Overcast
2:00 AM 66.2 °F 59.0 °F 78% 29.74 in 6.2 mi WSW 10.4 mph - N/A   Overcast
2:30 AM 66.2 °F 59.0 °F 78% 29.71 in 6.2 mi SW 8.1 mph - N/A   Overcast
3:00 AM 66.2 °F 59.0 °F 78% 29.71 in 6.2 mi SW 10.4 mph - N/A   Overcast
3:30 AM 66.2 °F 59.0 °F 78% 29.71 in 6.2 mi WSW 10.4 mph - N/A   Overcast
4:00 AM 64.4 °F 59.0 °F 83% 29.71 in 6.2 mi WSW 9.2 mph - N/A   Mostly Cloudy
4:30 AM 64.4 °F 59.0 °F 83% 29.71 in 6.2 mi WSW 8.1 mph - N/A   Partly Cloudy
5:00 AM 64.4 °F 59.0 °F 83% 29.71 in 6.2 mi WSW 10.4 mph - N/A   Partly Cloudy
5:30 AM 64.4 °F 57.2 °F 77% 29.71 in 6.2 mi WSW 9.2 mph - N/A   Unknown
6:00 AM 62.6 °F 57.2 °F 82% 29.71 in 6.2 mi West 9.2 mph - N/A   Unknown
6:30 AM 62.6 °F 59.0 °F 88% 29.71 in 6.2 mi West 6.9 mph - N/A   Scattered Clouds
7:00 AM 64.4 °F 59.0 °F 83% 29.71 in 6.2 mi West 5.8 mph - N/A   Partly Cloudy
7:30 AM 66.2 °F 59.0 °F 78% 29.71 in 6.2 mi West 9.2 mph - N/A   Unknown
8:00 AM 66.2 °F 59.0 °F 78% 29.74 in 6.2 mi West 8.1 mph - N/A   Unknown
8:30 AM 68.0 °F 59.0 °F 73% 29.74 in 6.2 mi WNW 9.2 mph - N/A Rain Light Rain Showers
9:00 AM 68.0 °F 57.2 °F 68% 29.74 in 6.2 mi West 10.4 mph - N/A   Partly Cloudy
9:30 AM 69.8 °F 59.0 °F 68% 29.74 in 6.2 mi West 10.4 mph - N/A   Partly Cloudy
10:00 AM 71.6 °F 59.0 °F 64% 29.74 in 6.2 mi West 16.1 mph - N/A   Partly Cloudy
10:30 AM 71.6 °F 57.2 °F 60% 29.74 in 6.2 mi West 15.0 mph - N/A   Unknown
11:00 AM 71.6 °F 57.2 °F 60% 29.74 in 6.2 mi WSW 15.0 mph - N/A   Partly Cloudy
11:30 AM 71.6 °F 57.2 °F 60% 29.74 in 6.2 mi West 13.8 mph - N/A   Partly Cloudy
12:00 PM 73.4 °F 59.0 °F 61% 29.71 in 6.2 mi WSW 17.3 mph - N/A   Partly Cloudy
12:30 PM 68.0 °F 59.0 °F 73% 29.74 in 6.2 mi WSW 23.0 mph - N/A   Mostly Cloudy
1:00 PM 69.8 °F 60.8 °F 73% 29.74 in 6.2 mi West 11.5 mph - N/A   Mostly Cloudy
1:30 PM 71.6 °F 55.4 °F 57% 29.71 in 6.2 mi WSW 19.6 mph - N/A   Mostly Cloudy
2:00 PM 71.6 °F 55.4 °F 57% 29.71 in 6.2 mi WSW 17.3 mph - N/A   Mostly Cloudy
2:30 PM 73.4 °F 57.2 °F 57% 29.71 in 6.2 mi WSW 19.6 mph - N/A   Mostly Cloudy
3:00 PM 73.4 °F 57.2 °F 57% 29.71 in 6.2 mi WSW 17.3 mph - N/A   Mostly Cloudy
3:30 PM 71.6 °F 55.4 °F 57% 29.71 in 6.2 mi West 19.6 mph - N/A   Scattered Clouds
4:00 PM 73.4 °F 57.2 °F 57% 29.71 in 6.2 mi WSW 20.7 mph - N/A   Partly Cloudy
4:30 PM 69.8 °F 53.6 °F 56% 29.71 in 6.2 mi WSW 19.6 mph - N/A   Partly Cloudy
5:00 PM 71.6 °F 51.8 °F 50% 29.71 in 6.2 mi West 18.4 mph - N/A   Unknown
5:30 PM 68.0 °F 53.6 °F 60% 29.71 in 6.2 mi West 19.6 mph - N/A   Mostly Cloudy
6:00 PM 69.8 °F 53.6 °F 56% 29.71 in 6.2 mi WSW 18.4 mph - N/A   Mostly Cloudy
6:30 PM 68.0 °F 55.4 °F 64% 29.71 in 6.2 mi WSW 18.4 mph - N/A   Mostly Cloudy
7:00 PM 66.2 °F 53.6 °F 64% 29.71 in 6.2 mi West 19.6 mph - N/A Rain Light Rain Showers
7:30 PM 66.2 °F 55.4 °F 68% 29.71 in 6.2 mi West 17.3 mph - N/A Rain Light Rain Showers
8:00 PM 66.2 °F 55.4 °F 68% 29.71 in 6.2 mi WSW 18.4 mph - N/A   Mostly Cloudy
8:30 PM 66.2 °F 53.6 °F 64% 29.74 in 6.2 mi WSW 18.4 mph - N/A   Mostly Cloudy
9:00 PM 66.2 °F 53.6 °F 64% 29.74 in 6.2 mi West 19.6 mph - N/A   Mostly Cloudy
9:30 PM 64.4 °F 53.6 °F 68% 29.74 in 6.2 mi West 19.6 mph - N/A   Scattered Clouds
10:00 PM 64.4 °F 51.8 °F 64% 29.74 in 6.2 mi West 18.4 mph - N/A   Mostly Cloudy
10:30 PM 64.4 °F 53.6 °F 68% 29.74 in 6.2 mi WSW 16.1 mph - N/A   Partly Cloudy
11:00 PM 64.4 °F 53.6 °F 68% 29.77 in 6.2 mi West 18.4 mph - N/A   Mostly Cloudy
11:30 PM 62.6 °F 55.4 °F 77% 29.77 in 6.2 mi WSW 15.0 mph - N/A   Scattered Clouds